Location: North Evanston
(42.0634°N, 87.6976°W)
Time: 14:52:23
(UTC+00:00)

Injun/Solrad 3 - Pass Details

Date: 15 May 2026
Orbit: 867 x 989 km, 66.8° (Epoch: 7 June)

Event Time Altitude Azimuth Distance (km) Brightness Sun altitude
Rises 00:05:11 0° 280° (W) 3,567 13.2 9.3°
Reaches altitude 10° 00:09:47 10° 312° (NW) 2,660 11.8 8.4°
Maximum altitude 00:11:55 12° 332° (NNW) 2,551 11.0 8.1°
Drops below altitude 10° 00:14:03 10° 352° (N) 2,692 10.7 7.7°
Sets 00:18:48 0° 24° (NNE) 3,669 11.0 6.9°
